When you browse on this site, cookies collect data to enhance your experience and personalize the content and advertising you see.
Visit our Privacy Policy to learn more. By continuing to use the site, you agree to this use of cookies and data.
  • In Latvia
  • List of Countries
  • For 7 days
  • Water Temperature
  • Satellite Maps
  • Weather Map
  • Weather Widgets
  • user-avatar
    Login

    Hourly Weather Jelgava

    Today, 21 April, Sunday

    Time Temperature Precipitation Wind Pressure Humidity
    00:00 +7°C° 0 mm 3 mps 769 mmHg 67%
    01:00 +7°C° 0 mm 3 mps 768 mmHg 68%
    02:00 +7°C° 0 mm 3 mps 768 mmHg 71%
    03:00 +6°C° 0 mm 2 mps 768 mmHg 69%
    04:00 +6°C° 0 mm 2 mps 768 mmHg 67%
    05:00 +6°C° 0 mm 2 mps 767 mmHg 65%
    06:00 +6°C° 0 mm 2 mps 767 mmHg 64%
    07:00 +5°C° 0 mm 3 mps 767 mmHg 63%
    08:00 +7°C° 0 mm 3 mps 767 mmHg 62%
    09:00 +8°C° 0 mm 3 mps 767 mmHg 58%
    10:00 +10°C° 0 mm 3 mps 767 mmHg 54%
    11:00 +11°C° 0 mm 4 mps 767 mmHg 50%
    12:00 +11°C° 0 mm 4 mps 767 mmHg 50%
    13:00 +12°C° 0 mm 4 mps 767 mmHg 50%
    14:00 +13°C° 0 mm 4 mps 767 mmHg 50%
    15:00 +13°C° 0 mm 4 mps 767 mmHg 47%
    16:00 +14°C° 0 mm 4 mps 767 mmHg 44%
    17:00 +15°C° 0 mm 4 mps 767 mmHg 40%
    18:00 +13°C° 0 mm 3 mps 767 mmHg 45%
    19:00 +12°C° 0 mm 3 mps 767 mmHg 50%
    20:00 +10°C° 0 mm 2 mps 767 mmHg 55%
    21:00 +9°C° 0 mm 2 mps 767 mmHg 59%
    22:00 +9°C° 0 mm 2 mps 767 mmHg 64%
    23:00 +8°C° 0 mm 2 mps 768 mmHg 68%

    Tomorrow, 22 April, Monday

    Time Temperature Precipitation Wind Pressure Humidity
    00:00 +8°C° 0 mm 2 mps 768 mmHg 73%
    01:00 +7°C° 0 mm 2 mps 768 mmHg 77%
    02:00 +7°C° 0 mm 2 mps 768 mmHg 82%
    03:00 +7°C° 0 mm 2 mps 769 mmHg 84%
    04:00 +6°C° 0 mm 2 mps 769 mmHg 86%
    05:00 +6°C° 0 mm 2 mps 769 mmHg 87%
    06:00 +7°C° 0 mm 2 mps 769 mmHg 80%
    07:00 +9°C° 0 mm 3 mps 769 mmHg 73%
    08:00 +10°C° 0 mm 3 mps 770 mmHg 66%
    09:00 +12°C° 0 mm 3 mps 770 mmHg 61%
    10:00 +14°C° 0 mm 4 mps 770 mmHg 55%
    11:00 +15°C° 0 mm 4 mps 770 mmHg 50%
    12:00 +17°C° 0 mm 4 mps 770 mmHg 48%
    13:00 +18°C° 0 mm 4 mps 770 mmHg 47%
    14:00 +18°C° 0 mm 4 mps 770 mmHg 45%
    15:00 +18°C° 0 mm 4 mps 770 mmHg 45%
    16:00 +18°C° 0 mm 4 mps 770 mmHg 45%
    17:00 +18°C° 0 mm 3 mps 770 mmHg 45%
    18:00 +17°C° 0 mm 3 mps 770 mmHg 52%
    19:00 +14°C° 0 mm 3 mps 770 mmHg 58%
    20:00 +13°C° 0 mm 2 mps 770 mmHg 64%
    21:00 +12°C° 0 mm 2 mps 771 mmHg 66%
    22:00 +10°C° 0 mm 2 mps 771 mmHg 67%
    23:00 +9°C° 0 mm 2 mps 771 mmHg 68%

    Day after tomorrow, 23 April, Tuesday

    Time Temperature Precipitation Wind Pressure Humidity
    00:00 +9°C° 0 mm 2 mps 771 mmHg 68%
    01:00 +8°C° 0 mm 2 mps 771 mmHg 69%
    02:00 +8°C° 0 mm 2 mps 772 mmHg 69%
    03:00 +7°C° 0 mm 2 mps 772 mmHg 70%
    04:00 +7°C° 0 mm 2 mps 772 mmHg 71%
    05:00 +7°C° 0 mm 2 mps 772 mmHg 72%
    06:00 +8°C° 0 mm 2 mps 772 mmHg 68%
    07:00 +10°C° 0 mm 2 mps 772 mmHg 63%
    08:00 +12°C° 0 mm 2 mps 772 mmHg 59%
    09:00 +13°C° 0 mm 3 mps 772 mmHg 52%
    10:00 +16°C° 0 mm 3 mps 772 mmHg 45%
    11:00 +17°C° 0 mm 4 mps 772 mmHg 38%
    12:00 +18°C° 0 mm 4 mps 772 mmHg 37%
    13:00 +18°C° 0 mm 4 mps 772 mmHg 36%
    14:00 +19°C° 0 mm 4 mps 771 mmHg 35%
    15:00 +19°C° 0 mm 4 mps 771 mmHg 36%
    16:00 +18°C° 0 mm 4 mps 771 mmHg 38%
    17:00 +18°C° 0 mm 4 mps 770 mmHg 39%
    18:00 +17°C° 0 mm 4 mps 770 mmHg 45%
    19:00 +14°C° 0 mm 3 mps 770 mmHg 52%
    20:00 +12°C° 0 mm 3 mps 770 mmHg 58%
    21:00 +11°C° 0 mm 3 mps 770 mmHg 60%
    22:00 +11°C° 0 mm 3 mps 770 mmHg 62%
    23:00 +10°C° 0 mm 3 mps 770 mmHg 63%

    24 April, Wednesday

    Time Temperature Precipitation Wind Pressure Humidity
    00:00 +10°C° 0 mm 3 mps 770 mmHg 64%
    01:00 +9°C° 0 mm 3 mps 770 mmHg 64%
    02:00 +9°C° 0 mm 3 mps 770 mmHg 65%
    03:00 +9°C° 0 mm 3 mps 770 mmHg 66%
    04:00 +8°C° 0 mm 3 mps 770 mmHg 68%
    05:00 +8°C° 0 mm 3 mps 770 mmHg 69%
    06:00 +10°C° 0 mm 4 mps 770 mmHg 64%
    07:00 +10°C° 0 mm 5 mps 770 mmHg 59%
    08:00 +13°C° 0 mm 6 mps 769 mmHg 54%
    09:00 +14°C° 0 mm 6 mps 769 mmHg 50%
    10:00 +15°C° 0 mm 7 mps 769 mmHg 46%
    11:00 +17°C° 0 mm 7 mps 768 mmHg 42%
    12:00 +17°C° 0 mm 8 mps 768 mmHg 41%
    13:00 +18°C° 0 mm 8 mps 768 mmHg 40%
    14:00 +20°C° 0 mm 8 mps 767 mmHg 39%
    15:00 +18°C° 0 mm 7 mps 767 mmHg 41%
    16:00 +18°C° 0 mm 7 mps 767 mmHg 42%
    17:00 +18°C° 0 mm 7 mps 766 mmHg 43%
    18:00 +17°C° 0 mm 6 mps 766 mmHg 48%
    19:00 +16°C° 0 mm 5 mps 766 mmHg 52%
    20:00 +14°C° 0 mm 4 mps 766 mmHg 56%
    21:00 +14°C° 0 mm 5 mps 766 mmHg 56%
    22:00 +14°C° 0 mm 5 mps 766 mmHg 56%
    23:00 +14°C° 0 mm 5 mps 766 mmHg 56%

    25 April, Thursday

    Time Temperature Precipitation Wind Pressure Humidity
    00:00 +13°C° 0 mm 5 mps 766 mmHg 57%
    01:00 +13°C° 0 mm 5 mps 766 mmHg 58%
    02:00 +13°C° 0 mm 5 mps 766 mmHg 59%
    03:00 +12°C° 0 mm 5 mps 766 mmHg 61%
    04:00 +11°C° 0 mm 4 mps 766 mmHg 62%
    05:00 +11°C° 0 mm 4 mps 766 mmHg 64%
    06:00 +12°C° 0 mm 5 mps 765 mmHg 63%
    07:00 +13°C° 0 mm 5 mps 765 mmHg 62%
    08:00 +13°C° 0 mm 5 mps 765 mmHg 61%
    09:00 +15°C° 0 mm 5 mps 765 mmHg 59%
    10:00 +16°C° 0 mm 5 mps 765 mmHg 57%
    11:00 +19°C° 0 mm 5 mps 765 mmHg 55%
    12:00 +20°C° 0 mm 5 mps 764 mmHg 53%
    13:00 +21°C° 0 mm 5 mps 764 mmHg 52%
    14:00 +22°C° 0 mm 5 mps 764 mmHg 51%
    15:00 +22°C° 0 mm 5 mps 764 mmHg 52%
    16:00 +22°C° 0 mm 5 mps 763 mmHg 52%
    17:00 +22°C° 0 mm 5 mps 763 mmHg 53%
    18:00 +21°C° 0 mm 4 mps 763 mmHg 60%
    19:00 +19°C° 0 mm 4 mps 763 mmHg 66%
    20:00 +18°C° 0 mm 3 mps 763 mmHg 73%
    21:00 +17°C° 0 mm 3 mps 763 mmHg 75%
    22:00 +16°C° 0 mm 3 mps 763 mmHg 77%
    23:00 +16°C° 0 mm 3 mps 763 mmHg 79%

    26 April, Friday

    Time Temperature Precipitation Wind Pressure Humidity
    00:00 +14°C° 0 mm 3 mps 762 mmHg 80%
    01:00 +14°C° 0 mm 3 mps 762 mmHg 81%
    02:00 +13°C° 0 mm 3 mps 762 mmHg 82%
    03:00 +13°C° 0 mm 3 mps 762 mmHg 83%
    04:00 +12°C° 0 mm 3 mps 761 mmHg 83%
    05:00 +13°C° 0 mm 2 mps 761 mmHg 84%
    06:00 +13°C° 0 mm 3 mps 761 mmHg 80%
    07:00 +14°C° 0 mm 3 mps 761 mmHg 76%
    08:00 +16°C° 0 mm 3 mps 761 mmHg 73%
    09:00 +18°C° 0 mm 3 mps 760 mmHg 68%
    10:00 +20°C° 0 mm 3 mps 760 mmHg 64%
    11:00 +22°C° 0 mm 3 mps 760 mmHg 59%
    12:00 +24°C° 0 mm 3 mps 760 mmHg 57%
    13:00 +25°C° 0 mm 3 mps 759 mmHg 55%
    14:00 +26°C° 0 mm 3 mps 759 mmHg 53%
    15:00 +26°C° 0 mm 3 mps 759 mmHg 53%
    16:00 +25°C° 0 mm 2 mps 758 mmHg 53%
    17:00 +25°C° 0 mm 2 mps 758 mmHg 53%
    18:00 +24°C° 0.4 mm 2 mps 758 mmHg 61%
    19:00 +22°C° 0.4 mm 1 mps 758 mmHg 69%
    20:00 +20°C° 0.4 mm 1 mps 758 mmHg 77%
    21:00 +19°C° 0 mm 1 mps 758 mmHg 80%
    22:00 +19°C° 0 mm 1 mps 758 mmHg 83%
    23:00 +18°C° 0 mm 1 mps 758 mmHg 87%
    Show more